Voltar ao catálogo

STARLINK-37811

AtivoComunicaçõesVLEO
NORAD 100296·PAYLOAD·🇺🇸 United States

Lançado Aug 11, 2026 de Cape Canaveral Space Force Station

Loading…

Próximas Passagens (próximas 24 horas)

TLE

ObsoletoSource: Space-Track

Época: Sep 8, 2026, 15:14 UTC

1 A0296U 26183AA  26251.63477748 -.00486777  00000-0 -43171-2 0  9998
2 A0296  53.1598 315.6055 0000478  53.1553 306.9509 15.69355442  4444

Acompanhe STARLINK-37811 em tempo real com AllMySat

Download on the App Store